Miscellaneous Local Product
Issued by NWS North Platte, NE

Home | Current Version | Previous Version | Text Only | Print | Product List | Glossary On
Versions: 1 2 3 4 5 6 7 8 9 10 11 12 13 14 15 16 17 18 19 20 21 22 23 24 25 26 27 28 29 30 31 32 33 34 35 36 37 38 39 40 41 42 43 44 45 46 47 48 49 50
000
AXUS43 KLBF 221610
MISLBF


WESTERN AND NORTH CENTRAL NEBRASKA HOURLY WEATHER ROUNDUP
NATIONAL WEATHER SERVICE NORTH PLATTE NE
1100 AM CDT TUE AUG 22 2017

NOTE: "FAIR" INDICATES FEW OR NO CLOUDS BELOW 12,000 FEET WITH NO
SIGNIFICANT WEATHER AND/OR OBSTRUCTIONS TO VISIBILITY.

NOTE: STATIONS NOT REPORTING VARIABLES SUCH AS SKY/WEATHER OR
PRESSURE ARE PROVIDED BY RAWS AND APRS NETWORKS AND ARE NOT UNDER
NATIONAL WEATHER SERVICE QUALITY CONTROL.

...OBSERVATIONS IN AND NEAR THE EASTERN PANHANDLE OF NEBRASKA...

CITY           SKY/WX    TMP DP  RH WIND       PRES   REMARKS
GORDON         FAIR      68  46  45 S10       30.30S
CHADRON        SUNNY     73  41  31 S14       30.26F
ALLIANCE       SUNNY     69  44  40 S12       30.31S
SIDNEY         SUNNY     69  49  48 S14       30.35R
$$

...OBSERVATIONS IN NORTHERN NEBRASKA AND FAR SOUTHERN SOUTH DAKOTA...

CITY           SKY/WX    TMP DP  RH WIND       PRES   REMARKS
WINNER         FAIR      71  52  50 CALM      30.25S
VALENTINE      SUNNY     71  45  39 SW6       30.27S
THEDFORD       SUNNY     70  46  42 CALM      30.31R
AINSWORTH      SUNNY     67  47  48 CALM      30.28S
O`NEILL        SUNNY     68  51  55 N5        30.26R
ORD            SUNNY     70  46  42 NE6       30.25R
BROKEN BOW     SUNNY     71  47  42 NE10      30.27R
HALSEY           N/A     69  47  46 E3          N/A
BUTTE            N/A     68  49  50 N3          N/A
CHAMBERS         N/A     73  50  43 N3          N/A
EWING            N/A     68  54  60 N5          N/A
$$

...OBSERVATIONS IN SOUTHWEST NEBRASKA AND FAR NORTHEAST COLORADO...

CITY           SKY/WX    TMP DP  RH WIND       PRES   REMARKS
HOLYOKE        FAIR      72  54  53 SE7       30.34R
IMPERIAL       SUNNY     70  50  49 E7        30.31S
OGALLALA       SUNNY     69  52  53 S3        30.31S
NORTH PLATTE   SUNNY     69  54  58 CALM      30.29S
MCCOOK         SUNNY     70  54  56 E9        30.28R
LEXINGTON      SUNNY     70  53  54 E8        30.28R
STAPLETON        N/A     68  51  54 CALM        N/A
GOTHENBURG       N/A     67  50  54 E3          N/A
CALLAWAY         N/A     66  56  70 E8          N/A
$$

...OBSERVATIONS IN CENTRAL LINCOLN COUNTY AREA...

CITY           SKY/WX    TMP DP  RH WIND       PRES   REMARKS
N.P. AIRPORT   SUNNY     69  54  58 CALM      30.29S
N.P. DOWNTOWN    N/A     68  54  61 CALM        N/A
N.P. SOUTHEAST   N/A     68  54  61 CALM        N/A
N.P. HILLCREST   N/A     69  52  54 E6          N/A
$$

...SOME OBSERVATIONS FROM AROUND THE REGION...

CITY           SKY/WX    TMP DP  RH WIND       PRES   REMARKS
DENVER         PTSUNNY   71  55  56 SE9       30.34S
LIMON          PTSUNNY   64  56  75 S10       30.39S
ASPEN          CLOUDY    65  40  39 N3        30.47S
LARAMIE        SUNNY     68  45  43 S10       30.39S
CASPER         SUNNY     67  42  40 CALM      30.29F
CHEYENNE       CLOUDY    61  55  81 S15G21    30.38R
SCOTTSBLUFF    SUNNY     70  55  59 SE15      30.29F
GRAND ISLAND   SUNNY     70  51  51 NE9       30.25R
OMAHA          MOSUNNY   71  56  58 N12       30.17R
SIOUX FALLS    MOSUNNY   71  51  49 NW12      30.18S
PIERRE         SUNNY     67  50  54 SW7       30.22S
RAPID CITY     SUNNY     71  46  40 SE14      30.24F
BISMARCK       SUNNY     67  49  52 NW3       30.21S
KANSAS CITY    PTSUNNY   74  66  76 N10       30.12R
HILL CITY      MOSUNNY   76  62  62 E13G22    30.25S
WICHITA        PTSUNNY   82  72  71 N18       30.07R
DODGE CITY     CLOUDY    73  63  70 NE17G25   30.20R
OKLAHOMA CITY  CLOUDY    83  68  60 SW12      30.06R
DALLAS         MOSUNNY   91  71  51 W7        30.06R HX  97
AMARILLO       SUNNY     79  66  64 NW12      30.20R
$$




USA.gov is the U.S. government's official web portal to all federal, state and local government web resources and services.